EN

Hourly Weather La Ciotat

Today, 6 August, Friday

Time Temperature Precipitation Wind Pressure Humidity
00:00 +22°C° 0 mm 5 mps 754 mmHg 83%
01:00 +22°C° 0 mm 5 mps 754 mmHg 78%
02:00 +22°C° 0 mm 5 mps 754 mmHg 74%
03:00 +22°C° 0 mm 5 mps 754 mmHg 69%
04:00 +22°C° 0 mm 4 mps 754 mmHg 65%
05:00 +23°C° 0 mm 4 mps 754 mmHg 61%
06:00 +23°C° 0 mm 4 mps 754 mmHg 57%
07:00 +26°C° 0 mm 5 mps 754 mmHg 52%
08:00 +27°C° 0 mm 5 mps 754 mmHg 47%
09:00 +29°C° 0 mm 6 mps 754 mmHg 42%
10:00 +30°C° 0 mm 6 mps 754 mmHg 40%
11:00 +32°C° 0 mm 6 mps 754 mmHg 37%
12:00 +32°C° 0 mm 6 mps 754 mmHg 35%
13:00 +32°C° 0 mm 6 mps 754 mmHg 36%
14:00 +32°C° 0 mm 5 mps 753 mmHg 38%
15:00 +30°C° 0 mm 5 mps 753 mmHg 39%
16:00 +29°C° 0 mm 5 mps 753 mmHg 43%
17:00 +28°C° 0 mm 4 mps 753 mmHg 47%
18:00 +27°C° 0 mm 3 mps 753 mmHg 50%
19:00 +26°C° 0 mm 3 mps 753 mmHg 55%
20:00 +25°C° 0 mm 2 mps 753 mmHg 59%
21:00 +24°C° 0 mm 2 mps 753 mmHg 63%
22:00 +24°C° 0 mm 1 mps 753 mmHg 65%
23:00 +23°C° 0 mm 1 mps 753 mmHg 66%

Tomorrow, 7 August, Saturday

Time Temperature Precipitation Wind Pressure Humidity
00:00 +23°C° 0 mm 1 mps 753 mmHg 68%
01:00 +23°C° 0 mm 1 mps 753 mmHg 68%
02:00 +23°C° 0 mm 2 mps 753 mmHg 67%
03:00 +22°C° 0 mm 3 mps 752 mmHg 67%
04:00 +22°C° 0 mm 4 mps 752 mmHg 66%
05:00 +22°C° 0 mm 5 mps 752 mmHg 64%
06:00 +23°C° 0 mm 5 mps 752 mmHg 63%
07:00 +24°C° 0 mm 6 mps 752 mmHg 61%
08:00 +27°C° 0 mm 7 mps 752 mmHg 59%
09:00 +29°C° 0 mm 7 mps 752 mmHg 56%
10:00 +31°C° 0 mm 8 mps 752 mmHg 53%
11:00 +31°C° 0 mm 8 mps 752 mmHg 50%
12:00 +32°C° 0 mm 8 mps 752 mmHg 46%
13:00 +32°C° 0 mm 8 mps 752 mmHg 47%
14:00 +32°C° 0 mm 8 mps 752 mmHg 47%
15:00 +30°C° 0 mm 7 mps 752 mmHg 47%
16:00 +29°C° 0 mm 6 mps 752 mmHg 52%
17:00 +28°C° 0 mm 5 mps 752 mmHg 56%
18:00 +28°C° 0 mm 4 mps 753 mmHg 60%
19:00 +27°C° 0 mm 3 mps 753 mmHg 66%
20:00 +26°C° 0 mm 3 mps 753 mmHg 71%
21:00 +25°C° 0 mm 2 mps 754 mmHg 77%
22:00 +25°C° 0 mm 3 mps 754 mmHg 78%
23:00 +25°C° 0 mm 4 mps 754 mmHg 79%

Day after tomorrow, 8 August, Sunday

Time Temperature Precipitation Wind Pressure Humidity
00:00 +25°C° 0 mm 5 mps 754 mmHg 80%
01:00 +23°C° 0 mm 5 mps 754 mmHg 80%
02:00 +22°C° 0 mm 6 mps 754 mmHg 79%
03:00 +22°C° 0 mm 7 mps 754 mmHg 78%
04:00 +22°C° 0 mm 7 mps 755 mmHg 75%
05:00 +22°C° 0 mm 7 mps 755 mmHg 71%
06:00 +21°C° 0 mm 7 mps 756 mmHg 67%
07:00 +23°C° 0 mm 7 mps 756 mmHg 56%
08:00 +26°C° 0 mm 7 mps 756 mmHg 45%
09:00 +28°C° 0 mm 7 mps 757 mmHg 34%
10:00 +30°C° 0 mm 7 mps 757 mmHg 31%
11:00 +32°C° 0 mm 8 mps 757 mmHg 28%
12:00 +33°C° 0 mm 8 mps 757 mmHg 24%
13:00 +33°C° 0 mm 8 mps 757 mmHg 26%
14:00 +32°C° 0 mm 7 mps 757 mmHg 27%
15:00 +32°C° 0 mm 7 mps 757 mmHg 28%
16:00 +30°C° 0 mm 7 mps 757 mmHg 30%
17:00 +29°C° 0 mm 6 mps 758 mmHg 32%
18:00 +28°C° 0 mm 5 mps 758 mmHg 34%
19:00 +27°C° 0 mm 5 mps 758 mmHg 36%
20:00 +26°C° 0 mm 4 mps 758 mmHg 38%
21:00 +25°C° 0 mm 4 mps 759 mmHg 40%
22:00 +25°C° 0 mm 4 mps 759 mmHg 40%
23:00 +25°C° 0 mm 4 mps 759 mmHg 41%

9 August, Monday

Time Temperature Precipitation Wind Pressure Humidity
00:00 +24°C° 0 mm 3 mps 759 mmHg 41%
01:00 +24°C° 0 mm 3 mps 759 mmHg 42%
02:00 +22°C° 0 mm 3 mps 759 mmHg 43%
03:00 +22°C° 0 mm 3 mps 759 mmHg 44%
04:00 +22°C° 0 mm 4 mps 759 mmHg 42%
05:00 +23°C° 0 mm 4 mps 759 mmHg 41%
06:00 +23°C° 0 mm 4 mps 759 mmHg 40%
07:00 +26°C° 0 mm 4 mps 759 mmHg 34%
08:00 +29°C° 0 mm 4 mps 759 mmHg 29%
09:00 +32°C° 0 mm 4 mps 760 mmHg 23%
10:00 +33°C° 0 mm 4 mps 760 mmHg 22%
11:00 +34°C° 0 mm 4 mps 760 mmHg 20%
12:00 +35°C° 0 mm 4 mps 760 mmHg 18%
13:00 +35°C° 0 mm 5 mps 759 mmHg 20%
14:00 +35°C° 0 mm 5 mps 759 mmHg 22%
15:00 +35°C° 0 mm 5 mps 759 mmHg 24%
16:00 +34°C° 0 mm 5 mps 759 mmHg 27%
17:00 +32°C° 0 mm 4 mps 759 mmHg 30%
18:00 +30°C° 0 mm 4 mps 759 mmHg 32%
19:00 +29°C° 0 mm 4 mps 759 mmHg 35%
20:00 +28°C° 0 mm 4 mps 760 mmHg 37%
21:00 +27°C° 0 mm 3 mps 760 mmHg 40%
22:00 +27°C° 0 mm 3 mps 760 mmHg 41%
23:00 +26°C° 0 mm 3 mps 760 mmHg 42%

10 August, Tuesday

Time Temperature Precipitation Wind Pressure Humidity
00:00 +26°C° 0 mm 3 mps 760 mmHg 43%
01:00 +26°C° 0 mm 3 mps 759 mmHg 43%
02:00 +26°C° 0 mm 3 mps 759 mmHg 43%
03:00 +26°C° 0 mm 3 mps 759 mmHg 43%
04:00 +26°C° 0 mm 3 mps 759 mmHg 43%
05:00 +26°C° 0 mm 3 mps 759 mmHg 42%
06:00 +27°C° 0 mm 3 mps 759 mmHg 42%
07:00 +29°C° 0 mm 3 mps 759 mmHg 38%
08:00 +31°C° 0 mm 2 mps 759 mmHg 34%
09:00 +34°C° 0 mm 2 mps 759 mmHg 30%
10:00 +35°C° 0 mm 2 mps 759 mmHg 30%
11:00 +35°C° 0 mm 2 mps 759 mmHg 29%
12:00 +36°C° 0 mm 2 mps 759 mmHg 29%
13:00 +36°C° 0 mm 3 mps 758 mmHg 31%
14:00 +35°C° 0 mm 3 mps 758 mmHg 33%
15:00 +35°C° 0 mm 4 mps 758 mmHg 34%
16:00 +34°C° 0 mm 3 mps 758 mmHg 36%
17:00 +33°C° 0 mm 3 mps 758 mmHg 37%
18:00 +32°C° 0 mm 2 mps 758 mmHg 38%
19:00 +31°C° 0 mm 3 mps 758 mmHg 38%
20:00 +30°C° 0 mm 3 mps 758 mmHg 38%
21:00 +29°C° 0 mm 3 mps 758 mmHg 38%
22:00 +29°C° 0 mm 3 mps 758 mmHg 39%
23:00 +28°C° 0 mm 3 mps 758 mmHg 39%

11 August, Wednesday

Time Temperature Precipitation Wind Pressure Humidity
00:00 +28°C° 0 mm 3 mps 758 mmHg 39%
01:00 +27°C° 0 mm 3 mps 758 mmHg 40%
02:00 +27°C° 0 mm 3 mps 758 mmHg 41%
03:00 +26°C° 0 mm 3 mps 758 mmHg 42%
04:00 +27°C° 0 mm 3 mps 758 mmHg 42%
05:00 +27°C° 0 mm 3 mps 758 mmHg 42%
06:00 +27°C° 0 mm 3 mps 758 mmHg 42%
07:00 +29°C° 0 mm 3 mps 758 mmHg 38%
08:00 +31°C° 0 mm 2 mps 759 mmHg 35%
09:00 +34°C° 0 mm 2 mps 759 mmHg 31%
10:00 +35°C° 0 mm 2 mps 759 mmHg 30%
11:00 +36°C° 0 mm 3 mps 759 mmHg 29%
12:00 +36°C° 0 mm 3 mps 759 mmHg 28%
13:00 +36°C° 0 mm 3 mps 758 mmHg 30%
14:00 +35°C° 0 mm 3 mps 758 mmHg 31%
15:00 +35°C° 0 mm 3 mps 758 mmHg 33%
16:00 +34°C° 0 mm 2 mps 758 mmHg 37%
17:00 +31°C° 0 mm 2 mps 758 mmHg 41%
18:00 +30°C° 0 mm 1 mps 758 mmHg 45%
19:00 +29°C° 0 mm 1 mps 758 mmHg 47%
20:00 +28°C° 0 mm 1 mps 758 mmHg 49%
21:00 +25°C° 0 mm 0 mps 759 mmHg 51%
22:00 +27°C° 0 mm 1 mps 759 mmHg 49%
23:00 +27°C° 0 mm 2 mps 759 mmHg 48%
Show more